Location: Cadenet
(43.7345°N, 5.3750°E)
Time: 15:10:26
(UTC+00:00)

Cosmos 1869 - Pass Details

Date: 18 February 2020
Orbit: 524 x 559 km, 82.5° (Epoch: 27 March)

Event Time Altitude Azimuth Distance (km) Brightness Sun altitude
Rises 05:48:45 0° 218° (SW) 2,713 6.6 -8.8°
Reaches altitude 10° 05:51:15 10° 232° (SW) 1,819 5.6 -8.4°
Maximum altitude 05:54:29 23° 287° (WNW) 1,178 4.4 -7.8°
Drops below altitude 10° 05:57:44 10° 341° (NNW) 1,814 5.7 -7.2°
Sets 06:00:13 0° 356° (N) 2,705 6.7 -6.8°
